Location: Waco, TX
(31.5480°N, 97.1670°W)
Time: 10:10:45

ISS - Pass Details

Date: 15 March 2018
Orbit: 403 x 406 km, 51.6° (Epoch: 23 March)

Event Time Altitude Azimuth Distance (km) Brightness Sun altitude
Rises 22:48:56 0° 186° (S) 2,307 - -40.4°
Reaches altitude 10° 22:51:46 10° 158° (SSE) 1,453 - -40.9°
Maximum altitude 22:53:30 14° 126° (SE) 1,253 - -41.2°
Drops below altitude 10° 22:55:14 10° 94° (E) 1,458 - -41.6°
Sets 22:58:05 0° 67° (ENE) 2,322 - -42.1°
